This is the latest recevied weather packets stored in our database for station/object CE3TDM-12. If no packets are shown the sender has not sent any weather packets the latest 10 day(s).
| Time | Temp. | Humidity | Pressure | Rain* | Wind** | Luminosity | Snow |
|---|---|---|---|---|---|---|---|
| 1777845126 | 14.44° C | 33% | 779.1 hPa | - | - | - | - |
| 1777844825 | 14.44° C | 33% | 778.9 hPa | - | - | - | - |
| 1777844525 | 14.44° C | 33% | 779.1 hPa | - | - | - | - |
| 1777844228 | 14.44° C | 33% | 779 hPa | - | - | - | - |
| 1777841117 | 16.11° C | 33% | 779 hPa | - | - | - | - |
| 1777840817 | 16.11° C | 33% | 779 hPa | - | - | - | - |
| 1777840515 | 16.11° C | 33% | 778.8 hPa | - | - | - | - |
| 1777840214 | 16.11° C | 33% | 778.9 hPa | - | - | - | - |
| 1777839914 | 16.67° C | 33% | 778.9 hPa | - | - | - | - |
| 1777839613 | 16.67° C | 33% | 778.8 hPa | - | - | - | - |
| 1777839311 | 16.67° C | 33% | 778.7 hPa | - | - | - | - |
| 1777839003 | 16.67° C | 33% | 778.7 hPa | - | - | - | - |
| 1777836769 | 18.89° C | 33% | 778.6 hPa | - | - | - | - |
| 1777836468 | 18.89° C | 33% | 778.7 hPa | - | - | - | - |
| 1777836163 | 19.44° C | 33% | 778.5 hPa | - | - | - | - |
| 1777835863 | 19.44° C | 32% | 778.6 hPa | - | - | - | - |
| 1777835561 | 20° C | 32% | 778.7 hPa | - | - | - | - |
| 1777835261 | 20° C | 32% | 778.6 hPa | - | - | - | - |
| 1777832240 | 20° C | 32% | 778.5 hPa | - | - | - | - |
| 1777831939 | 20° C | 33% | 778.7 hPa | - | - | - | - |
| 1777831639 | 20° C | 33% | 778.6 hPa | - | - | - | - |
| 1777831337 | 20° C | 33% | 778.8 hPa | - | - | - | - |
| 1777831035 | 20° C | 33% | 778.8 hPa | - | - | - | - |
| 1777830734 | 20° C | 33% | 778.2 hPa | - | - | - | - |
| 1777830434 | 20° C | 33% | 778.9 hPa | - | - | - | - |
* Rain since midnight (hover to see other rain measurements)
** Current wind speed in m/s (hover to see current wind gust speed)